This is the latest recevied weather packets stored in our database for station/object DM4RS-1. If no packets are shown the sender has not sent any weather packets the latest 10 day(s).
| Time | Temp. | Humidity | Pressure | Rain* | Wind** | Luminosity | Snow |
|---|---|---|---|---|---|---|---|
| 1777462567 | 14.44° C | 28% | 1029.6 hPa | - | - | - | - |
| 1777461966 | 14.44° C | 27% | 1030.1 hPa | - | - | - | - |
| 1777461366 | 13.89° C | 27% | 1029.9 hPa | - | - | - | - |
| 1777457766 | 13.89° C | 30% | 1031 hPa | - | - | - | - |
| 1777456565 | 13.33° C | 30% | 1031 hPa | - | - | - | - |
| 1777455965 | 13.33° C | 31% | 1031 hPa | - | - | - | - |
| 1777455365 | 13.89° C | 31% | 1030.6 hPa | - | - | - | - |
| 1777454765 | 13.89° C | 32% | 1030.7 hPa | - | - | - | - |
| 1777452364 | 12.22° C | 34% | 1030.6 hPa | - | - | - | - |
| 1777450564 | 11.67° C | 34% | 1030.8 hPa | - | - | - | - |
| 1777448163 | 11.11° C | 37% | 1031.4 hPa | - | - | - | - |
| 1777446963 | 10.56° C | 41% | 1030.6 hPa | - | - | - | - |
| 1777446363 | 10.56° C | 43% | 1031.3 hPa | - | - | - | - |
| 1777445763 | 10° C | 44% | 1030.5 hPa | - | - | - | - |
| 1777445163 | 10° C | 46% | 1030.5 hPa | - | - | - | - |
| 1777444563 | 9.44° C | 46% | 1030.1 hPa | - | - | - | - |
| 1777443962 | 8.89° C | 47% | 1030 hPa | - | - | - | - |
| 1777443362 | 8.33° C | 48% | 1030 hPa | - | - | - | - |
| 1777442763 | 7.78° C | 50% | 1029.8 hPa | - | - | - | - |
| 1777442162 | 6.67° C | 52% | 1030.2 hPa | - | - | - | - |
| 1777441562 | 6.67° C | 53% | 1030 hPa | - | - | - | - |
| 1777440962 | 5.56° C | 55% | 1030.5 hPa | - | - | - | - |
| 1777440362 | 5° C | 57% | 1031.2 hPa | - | - | - | - |
| 1777439761 | 4.44° C | 58% | 1029.7 hPa | - | - | - | - |
| 1777439161 | 4.44° C | 58% | 1029.8 hPa | - | - | - | - |
* Rain since midnight (hover to see other rain measurements)
** Current wind speed in m/s (hover to see current wind gust speed)